NOAA NWS Hourly Roundups by Site

Regional Weather Roundup for Green Bay, WI

To Select Another Site Choose from List

Select Site:  

000
ASUS43 KGRB 071610
RWRGRB

NORTH-CENTRAL AND NORTHEAST WISCONSIN REGIONAL WEATHER ROUNDUP
NATIONAL WEATHER SERVICE GREEN BAY WI
1100 AM CDT FRI OCT 07 2022

WIZ005-009-010>012-018-019-071700-
NORTH CENTRAL WISCONSIN

CITY           SKY/WX    TMP DP  RH WIND       PRES   REMARKS
IRONWOOD       CLOUDY    39  35  86 CALM      30.49S
MANITOWISH WTR CLOUDY    37  37 100 NW9       30.46F
ARBOR VITAE    CLOUDY    38  34  85 NW9       30.46S
EAGLE RIVER    CLOUDY    37  30  75 N3        30.45S
LAND O LAKES   LGT SNOW  36  33  90 N6        30.47S
RHINELANDER    FLURRIES  38  31  76 VRB5      30.46S
PHILLIPS       PTSUNNY   38  29  69 N5        30.48S
ANTIGO         CLOUDY    39  28  64 N14       30.46R
TOMAHAWK       CLOUDY    38  35  89 CALM      30.47F
MERRILL        PTSUNNY   41  33  73 N8        30.46F
$$

WIZ013-073-071700-
NORTHEAST WISCONSIN

CITY           SKY/WX    TMP DP  RH WIND       PRES   REMARKS
IRON MOUNTAIN  CLOUDY    40  31  70 NW12      30.44S
MARINETTE      CLOUDY    42  28  57 N16G25    30.45S
OCONTO         CLOUDY    41  32  70 N9        30.46R
$$

WIZ017-030-035>037-045-071700-
CENTRAL WISCONSIN

CITY           SKY/WX    TMP DP  RH WIND       PRES   REMARKS
MEDFORD        CLOUDY    41  33  72 N12       30.48S
WAUSAU         PTSUNNY   43  30  60 N10       30.46S
MOSINEE        PTSUNNY   39  30  70 N12G17    30.48S
MARSHFIELD     PTSUNNY   43  33  68 N12       30.48S
WISC RAPIDS    NOT AVBL
STEVENS POINT  CLOUDY    44  26  49 N8G17     30.48S
WAUPACA        MOSUNNY   45  31  58 N10       30.47F
SHAWANO        CLOUDY    44  32  64 N12       30.46F
CLINTONVILLE   CLOUDY    42  29  60 N12       30.48F
WAUTOMA        MOSUNNY   46  31  55 N12       30.47F
$$

WIZ038-039-048-051-071700-
FOX VALLEY

CITY           SKY/WX    TMP DP  RH WIND       PRES   REMARKS
NWS GREEN BAY  CLOUDY    45  31  58 N12       30.45S
APPLETON       PTSUNNY   41  30  65 N12       30.44F
OSHKOSH        MOSUNNY   45  33  63 N14       30.45S
FOND DU LAC    PTSUNNY   44  31  60 N15G24    30.45S
$$

WIZ022-050-052-071700-
EAST CENTRAL WISCONSIN

CITY           SKY/WX    TMP DP  RH WIND       PRES   REMARKS
EPHRAIM        CLOUDY    41  32  69 N14G21    30.41S
WASHINGTON ISL CLOUDY    40  32  75 NE15G23   30.42R
STURGEON BAY   CLOUDY    43  32  65 N16       30.43S
MANITOWOC      PTSUNNY   45  31  58 N17G23    30.43S
SHEBOYGAN      PTSUNNY   46  32  58 N16G25    30.42S
$$

LMZ563-521-522-541>543-071700-
LAKESHORE

STATION/POSITION TIME  TEMP    WIND        PRES    VSBY  WAVE
                       AIR SEA DIR/SP/G                  HT/PER
                 (UTC) (F)     (DEG/KT/KT) (MB)    (MI)  (FT/S)
SHEBOYGAN LKSHOR 1600   43     340/ 16/ 18 1030.8R
KEWAUNEE LKSHORE 1524   43     330/  8/ 13 1029.3
NORTHPORT PIER   1500   43     320/ 18/ 26 1030.5
N MID LAKE BUOY  1550   42 56  360/ 17/ 25 1029.6R         4/ 5
CHAMBERS ISLAND  1540   44     310/ 16/ 21   N/A
GREEN BAY WEST   1524   43     360/ 12/ 18 1030.1
MENOMINEE LKSHOR 1524   42 60  360/ 14/ 21 1029.4
$$


 

View Past Reports for Green Bay, WI.

Products Courtesy of NOAA-NWS
NWS Information Parsing Script by Ken True at Saratoga Weather - Script by SE Lincoln Weather.